Lapse_Rate
4.2 5.1 5.1 5.1 5.3 5.5 5.2 5.9 6.1 6.3 6.0 5.8 5.8 6.5 7.3 7.7 7.9 7.7 7.9 8.2 8.6 8.6 8.8 8.6 8.8 9.1 9.1 8.3 8.2 8.5 8.6 8.7 8.4 8.7 8.2 8.3 8.3 8.7 8.5 8.4 8.7 8.1 7.9 8.6
3.8 5.0 5.1 5.3 4.9 5.2 5.5 5.7 5.8 6.2 6.0 5.7 6.1 7.0 7.6 7.6 7.8 7.6 7.8 8.1 8.3 8.3 8.4 8.4 8.5 8.5 8.2 8.2 8.2 8.3 8.1 8.3 8.3 8.5 8.1 7.9 8.2 8.3 8.3 8.3 7.9 8.1 7.8 8.7
3.9 5.4 6.1 5.3 4.8 4.8 5.3 5.9 6.0 6.2 5.8 6.0 6.7 7.2 7.5 7.4 7.5 7.7 7.9 8.1 8.0 8.0 8.2 8.1 8.2 8.1 8.0 8.0 8.0 8.1 8.0 8.2 8.4 8.7 9.4 8.8 8.2 8.3 8.2 7.9 7.8 8.1 8.3 8.6
4.0 5.0 6.3 5.6 4.3 4.6 5.7 5.9 6.2 6.0 5.8 6.1 7.0 7.3 7.5 7.8 7.6 7.5 7.6 7.8 8.0 8.1 8.1 8.0 8.0 7.8 7.9 7.9 7.8 7.9 7.7 7.8 8.2 8.3 7.9 8.2 8.2 8.3 8.1 8.0 8.1 8.3 8.4 8.9
4.5 4.5 5.6 5.8 4.6 5.1 5.5 5.6 6.4 6.3 6.5 6.6 6.9 7.4 7.6 7.8 7.8 7.7 7.7 8.1 8.1 8.2 8.1 8.0 8.3 8.0 7.7 7.8 7.9 7.8 7.8 7.7 7.7 7.6 7.7 7.8 7.7 7.8 8.0 8.1 8.1 8.4 8.5 8.4
4.6 4.6 5.6 6.1 5.6 4.7 5.2 6.0 6.6 6.7 6.4 6.8 7.0 7.2 7.7 7.9 8.0 7.5 8.0 8.1 8.0 8.0 7.9 7.9 8.1 7.9 7.8 7.7 7.8 7.8 7.3 7.4 7.4 7.5 7.3 7.0 6.9 7.9 7.8 8.1 8.2 8.2 8.3 8.4
5.3 4.8 5.9 5.7 5.4 5.1 6.2 6.2 6.4 6.3 6.1 6.8 6.9 7.3 7.4 7.8 7.8 7.6 7.6 7.7 7.8 7.6 7.8 7.8 7.8 7.9 7.9 7.9 7.8 7.5 7.6 7.3 7.1 7.3 7.2 6.2 7.8 7.8 8.0 8.0 8.1 8.2 8.0 8.0
5.1 6.0 6.0 5.3 5.4 6.4 6.6 6.3 6.3 6.7 6.7 6.9 7.2 7.2 7.4 7.7 7.6 7.2 7.6 7.7 7.8 7.6 7.6 7.6 7.6 7.5 7.5 7.5 7.4 7.4 7.4 7.2 7.0 6.8 7.1 7.6 7.6 7.5 7.8 7.8 8.1 7.5 7.4 7.5
5.2 5.5 5.6 5.1 6.4 6.7 6.8 6.4 6.8 6.4 6.8 7.1 7.4 7.2 7.2 7.1 7.1 7.3 7.4 7.5 7.5 7.4 7.4 7.4 7.3 7.5 7.6 7.0 6.8 7.2 7.2 7.2 6.8 6.7 6.7 6.1 7.0 7.6 7.6 7.6 7.6 6.3 7.0 6.7
5.7 5.5 5.3 6.0 6.6 6.5 6.7 6.7 6.4 6.7 7.1 7.5 7.1 7.1 7.0 7.1 7.1 7.2 7.4 7.5 7.4 7.3 7.3 7.3 7.2 7.4 7.3 7.2 6.9 7.0 6.7 6.6 6.4 6.2 6.2 6.5 6.5 7.0 6.9 6.8 6.8 6.6 6.7 6.6
5.7 5.5 5.9 6.4 6.7 7.1 6.6 6.8 6.5 7.0 7.3 7.0 6.9 7.1 6.8 6.9 7.0 7.0 7.3 7.4 7.4 7.3 7.3 7.2 7.1 7.1 7.1 6.9 7.0 7.0 6.9 6.8 6.6 6.1 6.0 6.1 6.7 6.5 6.5 6.2 6.5 6.3 6.4 6.1
6.1 6.3 6.8 6.8 6.9 7.2 6.8 6.7 6.7 7.1 7.1 7.0 6.9 6.8 6.7 6.6 7.1 7.2 7.4 7.6 7.7 7.6 7.1 6.9 7.0 7.0 6.9 6.9 6.8 6.9 6.5 6.5 6.6 6.6 6.9 6.6 6.4 6.3 6.0 6.3 6.3 6.4 6.2 6.3
6.8 7.1 7.0 7.1 7.2 7.0 6.8 6.7 7.0 6.9 6.8 7.0 6.9 6.9 6.8 7.2 7.2 7.0 7.3 7.5 7.4 7.6 7.3 7.3 7.1 7.0 6.9 6.8 6.7 6.5 6.7 6.8 6.7 6.7 6.6 6.2 5.9 5.9 5.9 5.9 5.7 5.9 6.0 6.1
7.0 7.3 7.3 7.3 7.1 6.8 6.8 7.0 6.9 6.7 6.8 6.9 6.5 7.0 6.9 7.2 7.2 7.3 7.2 7.4 7.6 7.5 7.4 7.3 7.2 7.0 6.8 6.7 6.8 6.7 6.6 6.7 6.4 6.3 6.6 6.3 6.1 5.8 5.3 6.1 6.0 6.0 6.2 6.3
7.3 7.4 7.3 7.2 7.1 6.8 6.8 6.8 6.8 6.9 6.8 6.7 7.0 7.1 7.1 7.2 7.3 7.4 7.4 7.5 7.5 7.4 7.2 7.1 7.1 7.0 6.8 6.7 6.6 6.6 6.7 6.3 6.2 6.0 6.1 6.2 6.0 5.7 6.1 6.2 6.3 6.3 6.2 6.2
7.4 7.2 7.1 7.1 7.0 6.8 6.5 6.5 6.6 6.7 6.7 6.7 6.9 6.9 7.1 7.1 7.2 7.3 7.3 7.4 7.5 7.2 7.1 7.1 7.0 7.0 6.8 6.6 6.6 6.3 6.8 6.6 6.4 6.3 6.5 6.6 6.3 6.1 6.5 6.3 6.3 6.2 6.2 6.1
7.2 7.2 7.1 7.1 7.0 6.6 6.4 6.6 6.8 6.7 6.5 6.6 6.8 7.0 7.1 7.0 7.2 7.3 7.3 7.3 7.3 7.1 7.2 7.1 7.1 7.1 6.8 6.6 6.5 6.2 6.9 6.8 6.7 6.8 6.8 6.4 6.8 6.4 6.4 6.3 6.2 6.0 5.9 6.0
7.1 7.1 7.0 6.8 6.4 6.7 6.4 6.5 6.9 6.8 6.8 6.7 7.0 6.8 6.8 6.9 7.0 7.1 7.1 7.2 7.2 7.2 7.2 7.2 7.2 7.0 6.7 6.4 6.6 6.9 7.1 7.1 6.9 6.9 6.7 6.7 6.4 6.3 6.3 6.0 6.0 5.9 5.9 5.9
6.9 6.9 6.9 6.7 6.2 6.2 6.4 6.5 6.5 6.2 6.1 6.3 6.8 7.1 6.8 6.8 7.0 7.1 7.1 7.2 7.3 7.3 7.2 7.2 7.1 6.9 6.6 7.0 7.2 7.2 7.1 6.9 6.6 6.6 6.5 6.4 6.2 6.2 6.1 5.8 5.9 5.9 5.9 5.7
6.7 6.6 6.3 6.4 6.3 6.3 6.6 6.3 6.1 6.0 6.8 7.3 7.5 7.5 7.4 7.3 7.2 7.2 7.3 7.4 7.3 7.1 7.3 7.3 6.9 6.8 7.2 7.5 7.5 7.4 7.1 6.8 6.6 6.4 6.3 6.2 6.3 6.1 6.1 5.9 5.9 5.9 5.7 5.5
6.7 6.5 6.4 6.5 6.5 6.5 6.5 6.2 6.3 6.6 6.9 7.3 7.6 7.8 7.8 7.7 7.6 7.6 7.5 7.4 7.3 7.1 7.3 7.0 6.7 6.7 7.3 7.5 7.6 7.3 7.0 6.8 6.5 6.3 6.2 6.1 6.1 6.0 5.9 5.9 5.8 5.6 5.3 5.2
6.0 6.0 6.0 6.2 6.3 6.2 6.6 6.9 7.1 7.2 7.6 7.6 7.7 7.8 7.9 8.0 7.9 7.7 7.4 7.4 7.4 7.2 7.2 7.0 6.5 6.7 7.2 7.3 7.0 6.9 6.5 6.3 6.3 6.2 6.0 5.9 5.8 5.9 5.7 5.5 5.3 5.2 5.2 5.2
6.5 6.5 6.4 6.4 6.7 6.6 6.9 7.1 7.5 7.6 7.8 8.0 8.3 8.3 8.0 7.8 7.8 7.8 7.6 7.5 7.4 7.2 6.6 6.5 6.5 7.0 7.0 6.7 6.4 5.7 5.4 5.3 5.5 5.7 5.7 5.7 5.7 5.5 5.3 5.4 5.3 5.3 5.5 5.6
6.5 6.6 6.3 6.5 6.6 6.9 7.0 7.2 7.7 7.9 8.0 8.0 7.9 7.9 7.8 7.9 7.6 7.4 7.3 6.9 6.7 6.3 5.6 5.9 7.1 6.8 6.6 6.1 5.8 5.7 5.5 5.4 5.4 5.4 5.4 5.4 5.3 5.3 5.4 5.6 5.7 5.8 5.6 5.5
6.3 6.2 6.2 6.3 6.6 6.8 7.2 7.3 7.4 7.5 7.6 7.7 7.7 7.7 7.5 7.5 7.1 7.0 6.9 6.5 6.1 5.7 5.7 6.3 6.4 6.2 5.9 5.7 5.5 5.4 5.3 5.3 5.2 5.3 5.4 5.4 5.6 5.7 5.7 5.6 5.6 5.5 5.5 5.5
6.2 6.1 6.1 6.3 6.3 6.5 6.8 6.8 7.0 7.2 7.4 7.2 7.1 6.9 6.8 6.8 6.9 6.6 6.3 6.3 5.9 6.0 6.3 6.1 6.0 5.8 5.6 5.4 5.3 5.4 5.3 5.2 5.2 5.3 5.4 5.4 5.4 5.5 5.5 5.5 5.5 5.5 5.4 5.5
5.7 5.6 5.8 6.0 6.1 6.1 6.2 6.1 6.1 6.3 6.3 6.4 6.3 6.3 6.6 6.4 6.3 6.1 6.0 5.8 5.9 5.9 5.9 5.8 5.6 5.6 5.5 5.4 5.2 5.1 5.1 5.4 5.3 5.4 5.4 5.4 5.4 5.5 5.4 5.4 5.3 5.3 5.4 5.5
Wind_Speed
29 27 27 29 35 37 19 12 10 11 16 10 12 14 22 8 11 9 8 7 9 11 11 13 11 13 6 6 7 10 6 5 5 13 5 5 10 8 11 5 6 3 3 8
25 27 28 31 38 39 12 12 8 7 11 13 13 19 21 12 10 12 12 11 9 8 10 10 11 11 5 5 8 5 6 7 7 7 6 7 9 10 9 4 1 7 3 4
24 26 28 32 40 38 13 11 11 6 7 15 18 23 18 17 6 9 10 10 10 10 8 6 7 8 4 5 5 3 1 12 10 10 5 1 12 12 12 13 7 9 10 13
26 27 28 33 41 39 10 11 13 14 13 18 21 21 19 21 12 9 12 11 15 13 8 9 8 9 6 6 5 6 5 8 12 12 5 5 8 9 13 16 15 13 11 11
26 25 26 36 42 37 10 11 13 14 17 23 20 19 22 23 18 14 14 10 15 11 9 11 10 12 10 7 10 9 5 5 2 5 8 8 11 12 13 14 16 16 16 15
27 23 19 36 40 27 9 9 3 12 12 23 18 17 19 21 15 2 4 12 8 10 4 8 9 9 4 3 7 10 5 5 4 5 3 4 6 15 16 15 16 12 15 15
26 24 15 36 37 32 11 6 5 6 13 17 18 19 18 17 16 11 5 6 8 6 13 13 12 11 8 6 5 4 5 4 2 1 1 1 4 1 4 8 14 16 14 13
20 22 22 34 35 40 11 2 5 7 4 12 23 20 18 16 8 9 11 5 5 16 8 4 4 2 2 3 3 3 3 4 2 3 6 8 9 5 1 3 6 6 7 7
23 27 31 33 36 46 9 7 5 8 9 12 22 17 19 10 10 7 4 6 10 4 2 2 5 4 4 5 6 3 4 1 4 3 3 4 4 4 1 1 6 7 6 5
20 24 28 33 35 37 12 3 5 7 7 13 12 13 15 13 10 6 6 8 4 2 2 2 3 4 2 4 5 4 3 1 5 6 3 5 3 3 2 4 3 5 7 9
25 30 31 31 32 28 14 3 2 5 6 6 6 9 11 14 11 7 9 7 2 3 3 3 3 1 4 2 1 5 6 6 3 2 2 5 6 5 1 4 5 6 7 8
25 26 28 30 29 25 25 4 1 2 2 5 2 7 7 3 12 9 12 6 10 7 4 2 2 2 2 0 3 2 3 3 1 5 1 5 6 4 3 4 7 9 9 11
24 24 27 27 24 23 23 3 4 4 3 4 5 5 3 3 4 5 5 3 5 5 3 4 2 3 4 4 4 3 4 2 3 1 3 5 5 7 6 6 6 8 10 11
23 23 24 23 22 23 26 5 1 4 5 3 3 3 2 4 2 5 3 6 6 9 5 3 3 3 4 3 1 2 2 7 5 6 10 7 5 4 3 7 8 9 9 10
20 20 20 21 22 24 10 3 4 4 1 4 5 6 4 2 4 7 6 10 9 5 3 2 2 3 4 2 0 3 5 3 3 3 6 5 7 9 9 8 8 9 8 8
19 20 21 22 24 27 8 4 2 4 2 3 5 3 4 7 9 10 10 5 4 3 4 3 3 2 3 4 4 5 5 5 6 4 10 8 7 10 9 9 9 11 11 11
20 21 23 26 20 13 2 0 4 2 3 2 5 4 3 3 6 2 4 4 4 1 3 2 3 3 3 3 4 8 4 5 5 7 7 4 10 7 9 10 12 15 16 15
24 22 23 21 25 17 3 4 8 7 1 2 4 3 4 3 2 3 4 2 2 5 3 2 3 3 1 3 7 4 6 4 7 6 8 9 9 9 10 11 12 13 12 12
22 24 21 8 3 2 3 2 13 1 2 3 2 6 4 3 3 2 2 1 2 1 2 2 4 3 4 4 3 4 5 4 2 6 8 9 10 11 11 12 12 12 10 8
10 10 4 4 2 1 2 6 2 5 4 2 3 2 4 2 2 2 2 2 3 3 2 4 2 3 4 4 4 5 7 8 5 7 7 9 11 10 11 11 9 7 6 5
3 3 3 2 4 4 3 1 2 2 3 4 3 2 4 2 3 3 2 3 1 4 3 4 4 3 5 6 7 5 6 9 11 12 13 13 12 10 9 7 9 8 7 7
4 7 4 3 1 2 4 2 2 2 2 2 2 3 3 2 0 3 2 3 2 4 4 3 3 4 9 7 7 8 10 12 14 13 13 11 10 9 8 6 5 5 3 4
2 4 5 3 4 5 3 3 2 2 1 1 1 3 2 3 3 3 2 3 2 4 2 3 2 9 8 8 8 9 9 11 12 11 10 10 10 9 6 7 5 5 6 8
5 5 6 4 3 4 3 3 3 2 1 1 4 3 2 1 3 1 3 1 1 3 3 3 5 7 7 8 9 10 11 7 9 10 9 8 7 8 8 8 7 7 7 8
5 4 4 4 2 2 1 1 1 3 1 1 3 3 2 2 3 2 4 2 3 3 0 2 5 9 9 10 8 9 9 4 6 8 8 6 7 7 8 7 7 7 6 6
3 5 3 1 2 3 3 3 3 4 2 2 3 2 2 2 2 3 2 2 2 3 2 4 7 8 6 8 8 7 6 6 7 7 8 8 7 7 6 6 7 5 7 7
3 3 2 2 4 4 2 2 2 3 2 2 2 2 4 1 1 2 2 2 2 3 4 5 6 7 7 8 7 6 7 9 9 9 7 7 6 5 5 6 7 6 5 6
Wind_Direction
211 201 200 185 170 162 172 199 209 149 151 185 204 212 214 213 182 193 209 276 190 224 189 207 220 226 219 164 189 207 207 243 181 223 79 310 302 257 206 226 212 228 306 282
203 200 194 185 172 162 172 199 174 163 201 196 201 212 212 192 196 195 195 203 211 213 205 207 222 217 80 175 211 223 183 225 220 225 203 216 238 228 236 223 323 238 240 279
199 202 192 189 172 176 202 189 180 145 205 214 196 207 194 200 225 189 197 200 179 187 200 216 196 195 156 193 209 359 28 242 227 243 269 274 208 238 218 215 225 244 246 283
194 198 189 184 173 182 209 220 196 175 181 199 201 205 202 197 179 224 192 190 201 198 210 192 209 187 161 184 155 198 236 236 235 261 286 290 281 256 222 233 237 257 266 278
192 194 186 182 177 182 211 218 192 177 169 197 208 194 215 195 192 181 192 210 201 204 203 208 217 199 192 185 181 198 202 224 252 250 241 260 262 254 251 240 249 255 263 281
181 186 190 186 182 173 199 237 109 181 166 192 203 192 210 196 180 212 238 210 166 202 95 54 39 63 58 120 180 197 186 172 182 243 3 297 290 239 249 247 248 253 266 273
179 188 203 195 182 190 207 233 188 164 177 187 195 188 211 199 182 172 154 193 188 104 124 101 80 82 87 96 70 151 167 176 167 224 218 287 257 23 306 272 264 255 265 270
173 182 215 192 179 199 226 252 214 183 141 186 194 192 201 196 147 138 135 64 79 151 153 130 123 111 88 116 82 128 220 164 153 184 221 286 280 177 234 234 281 36 324 325
179 189 210 179 183 205 210 270 276 149 148 195 192 181 198 160 155 148 100 127 110 136 130 133 194 196 217 159 148 124 94 121 224 164 214 235 78 80 79 216 251 63 36 15
181 182 178 181 189 204 199 245 246 174 159 186 180 195 200 195 178 151 134 158 160 258 112 122 195 202 334 187 190 189 135 220 212 204 252 283 71 134 208 241 43 16 346 324
193 178 183 185 193 197 189 229 267 207 151 112 187 217 183 205 203 161 134 142 153 159 169 176 179 148 194 215 199 182 187 175 188 167 208 259 140 139 214 31 313 327 320 320
172 175 180 186 191 193 193 215 120 69 183 82 50 39 5 286 212 210 178 205 154 174 177 72 112 125 38 82 226 183 222 231 278 216 247 111 185 322 331 315 307 311 312 303
178 177 181 183 185 191 185 205 145 124 100 118 169 164 91 52 354 358 190 220 129 162 26 144 128 145 168 166 222 206 213 179 230 304 155 242 256 280 289 293 281 300 314 313
172 174 175 178 179 185 192 207 119 129 85 127 129 139 146 320 265 207 295 119 88 122 142 117 133 125 227 184 310 207 355 163 230 247 273 279 273 276 341 331 325 307 323 336
166 166 167 172 171 172 203 93 41 23 157 142 142 133 26 349 173 177 158 156 144 148 121 107 130 119 130 88 52 232 190 247 216 255 7 333 320 15 1 323 10 12 356 1
161 164 161 160 162 170 191 145 54 358 25 126 152 95 74 84 106 118 134 137 131 147 114 122 106 86 189 154 199 83 55 25 1 305 336 318 309 60 27 56 46 59 60 59
147 150 151 155 162 169 243 46 93 332 57 150 132 132 112 110 143 85 98 71 80 86 113 85 133 135 187 152 208 103 48 6 37 6 324 187 42 57 61 75 81 70 70 72
120 122 131 123 102 114 139 46 70 43 15 269 140 101 152 330 86 92 16 56 105 25 87 83 115 110 208 218 98 61 26 322 76 36 49 76 85 81 73 74 80 80 78 84
104 112 124 116 51 124 61 15 54 306 294 233 135 141 146 92 66 64 72 20 94 131 100 141 149 162 199 90 102 59 33 28 59 79 81 84 87 86 89 94 94 96 95 95
135 105 90 128 78 297 161 30 196 196 200 351 92 77 124 203 129 91 125 38 139 143 125 159 208 146 96 102 101 93 65 46 126 140 104 105 92 91 96 100 106 109 95 67
61 83 72 38 324 55 13 140 14 8 58 31 66 89 118 16 135 134 340 128 99 155 145 198 174 193 147 126 105 77 78 78 80 84 86 94 111 109 109 109 64 41 23 20
107 103 120 165 73 63 90 54 41 29 95 38 81 84 88 96 111 110 163 110 133 168 137 179 212 121 132 134 122 114 102 100 98 102 106 105 93 93 71 66 54 34 359 53
123 71 64 15 354 60 67 148 97 100 43 31 122 81 65 108 66 79 108 125 139 153 164 216 44 135 142 137 133 126 128 112 109 100 90 86 80 68 66 80 45 6 57 46
53 39 44 13 51 53 20 5 38 30 324 51 94 70 59 47 76 43 117 57 191 193 225 200 143 146 130 142 154 142 123 93 98 95 95 95 91 78 66 63 51 52 46 32
57 25 65 69 104 48 356 325 62 2 339 335 90 74 64 48 103 60 117 134 219 220 66 123 131 141 141 159 149 116 118 127 119 111 101 93 103 98 80 62 56 51 40 29
59 40 79 19 110 56 28 15 41 4 351 337 45 76 67 73 68 167 188 207 194 105 89 110 127 149 172 145 119 122 129 138 106 103 100 92 87 89 87 75 47 35 33 17
51 46 9 21 69 56 37 21 6 317 28 57 35 54 49 91 139 113 7 31 58 111 111 121 139 158 162 139 119 120 121 115 106 94 94 97 95 94 69 45 29 8 31 14